Date String (YYYY-MM-DD hh:mm:ss) UTC,Instrument flags,absolute air pressure of the measurement (hPa),sample flow rate (lpm),inlet stack bypass flow (lpm),air temperature of the measurement (°C),ambient temperature measured by the external sensor (°C),aerosol sample conditioner tube jacket temperature (°C),OPC LED temperature (°C),internal box temperature (°C),relative humidity of the measurement (%),span deviation,mass concentration of particles derived from Lorenz-Mie calculation of OPC scattering (μg/m³),mass concentration of particles derived from Lorenz-Mie calculation of OPC scattering (μg/m³),mass concentration of particles derived from Lorenz-Mie calculation of OPC scattering (μg/m³)
DateTimeUTC,F1_M11,P_M11,Q1_M11,Q2_M11,T1_M11,T2_M11,T3_M11,T4_M11,T5_M11,U1_M11,ZSPAN_M11,X2_M11,X0_M11,X1_M11
2024-06-04 16:00:00,SystemResetWarning,0824.1,4.99,000.00,029.5,028.7,000.0,037.9,031.3,019.5,0000.0,0000.77,0002.28,0000.45
2024-06-04 16:01:00,SystemResetWarning,0824.3,4.99,000.00,029.6,028.8,000.0,037.9,031.3,019.1,0000.0,0000.76,0002.08,0000.44
2024-06-04 16:02:00,SystemResetWarning,0824.5,4.99,000.00,029.6,029.0,000.0,037.9,031.4,019.4,0000.0,0000.79,0002.06,0000.45
2024-06-04 16:03:00,SystemResetWarning,0824.7,5.01,000.00,029.7,029.1,000.0,037.9,031.4,019.6,0000.0,0000.81,0002.15,0000.45
2024-06-04 16:04:00,SystemResetWarning,0824.7,5.01,000.00,029.7,029.1,000.0,038.0,031.5,019.6,0000.0,0000.85,0002.41,0000.45
2024-06-04 16:05:00,SystemResetWarning,0824.7,4.99,000.00,029.8,029.2,000.0,038.0,031.5,019.8,0000.0,0000.86,0002.60,0000.45
2024-06-04 16:06:00,SystemResetWarning,0824.8,5.00,000.00,029.8,029.3,000.0,038.0,031.6,019.7,0000.0,0000.84,0002.35,0000.44
2024-06-04 16:07:00,SystemResetWarning,0824.7,5.00,000.00,029.9,029.4,000.0,038.0,031.7,018.8,0000.0,0000.85,0002.42,0000.44
2024-06-04 16:08:00,SystemResetWarning,0824.7,5.01,000.00,029.9,029.4,000.0,038.1,031.7,017.7,0000.0,0000.86,0002.40,0000.43
2024-06-04 16:09:00,SystemResetWarning,0824.7,5.01,000.00,030.0,029.5,000.0,038.1,031.8,017.9,0000.0,0000.85,0002.27,0000.43
2024-06-04 16:10:00,SystemResetWarning,0824.6,5.00,000.00,030.1,029.6,000.0,038.1,031.8,018.1,0000.0,0000.82,0002.19,0000.42
2024-06-04 16:11:00,SystemResetWarning,0824.5,4.99,000.00,030.1,029.6,000.0,038.2,031.9,018.2,0000.0,0000.81,0002.92,0000.42
2024-06-04 16:12:00,SystemResetWarning,0824.7,4.99,000.00,030.1,029.6,000.0,038.2,031.9,019.4,0000.0,0000.82,0003.86,0000.42
2024-06-04 16:13:00,SystemResetWarning,0824.8,5.00,000.00,030.2,029.5,000.0,038.2,031.8,019.1,0000.0,0000.82,0004.00,0000.41
2024-06-04 16:14:00,SystemResetWarning,0824.8,5.00,000.00,029.9,027.6,000.0,038.3,030.9,019.5,0000.0,0000.80,0005.28,0000.39
2024-06-04 16:15:00,SystemResetWarning,0824.7,5.02,000.00,029.6,026.9,000.0,038.3,030.5,018.9,0000.0,0000.76,0005.37,0000.38
2024-06-04 16:16:00,SystemResetWarning,0824.9,5.00,000.00,029.5,027.2,000.0,038.3,030.6,019.1,0000.0,0000.72,0004.96,0000.36
2024-06-04 16:17:00,SystemResetWarning,0824.7,5.00,000.00,029.5,027.6,000.0,038.2,030.8,018.4,0000.0,0000.66,0004.77,0000.34
2024-06-04 16:18:00,SystemResetWarning,0824.8,5.00,000.00,029.6,027.9,000.0,038.1,031.0,018.4,0000.0,0000.63,0004.63,0000.32
2024-06-04 16:19:00,SystemResetWarning,0824.8,5.00,000.00,029.6,028.2,000.0,038.1,031.2,017.7,0000.0,0000.60,0004.56,0000.30
2024-06-04 16:20:00,SystemResetWarning,0824.7,5.01,000.00,029.6,028.4,000.0,038.0,031.3,017.8,0000.0,0000.61,0004.69,0000.29
2024-06-04 16:21:00,SystemResetWarning,0824.6,4.99,000.00,029.7,028.6,000.0,038.0,031.3,017.8,0000.0,0000.63,0004.84,0000.29
2024-06-04 16:22:00,SystemResetWarning,0824.5,5.00,000.00,029.7,028.8,000.0,038.1,031.4,017.5,0000.0,0000.70,0005.79,0000.28
2024-06-04 16:23:00,SystemResetWarning,0824.6,5.00,000.00,029.7,028.9,000.0,038.1,031.5,017.7,0000.0,0000.76,0005.15,0000.28
2024-06-04 16:24:00,SystemResetWarning,0824.5,5.01,000.00,029.8,029.0,000.0,038.1,031.5,017.5,0000.0,0000.85,0005.90,0000.28
2024-06-04 16:25:00,SystemResetWarning,0824.6,5.00,000.00,029.8,029.1,000.0,038.1,031.6,018.1,0000.0,0000.85,0006.44,0000.28
2024-06-04 16:26:00,SystemResetWarning,0824.6,5.00,000.00,029.9,029.2,000.0,038.1,031.6,017.6,0000.0,0000.89,0006.81,0000.28
2024-06-04 16:27:00,SystemResetWarning,0824.6,5.00,000.00,029.9,029.3,000.0,038.1,031.7,017.6,0000.0,0000.97,0008.84,0000.28
2024-06-04 16:28:00,SystemResetWarning,0824.7,4.99,000.00,029.9,029.4,000.0,038.1,031.7,017.6,0000.0,0001.07,0009.83,0000.29
2024-06-04 16:29:00,SystemResetWarning,0824.7,4.99,000.00,030.0,029.4,000.0,038.2,031.7,017.4,0000.0,0001.14,0010.12,0000.30
2024-06-04 16:30:00,SystemResetWarning,0824.7,5.00,000.00,030.0,029.5,000.0,038.2,031.8,016.8,0000.0,0001.13,0010.11,0000.32
2024-06-04 16:31:00,SystemResetWarning,0824.6,4.99,000.00,030.1,029.5,000.0,038.2,031.9,016.7,0000.0,0001.12,0010.05,0000.31
2024-06-04 16:32:00,SystemResetWarning,0824.7,5.00,000.00,030.1,029.6,000.0,038.2,031.9,016.8,0000.0,0001.13,0010.01,0000.32
2024-06-04 16:33:00,SystemResetWarning,0824.5,5.00,000.00,030.2,029.6,000.0,038.2,032.0,016.5,0000.0,0001.11,0009.59,0000.33
2024-06-04 16:34:00,SystemResetWarning,0824.6,5.00,000.00,030.2,029.7,000.0,038.3,032.0,016.7,0000.0,0001.11,0010.15,0000.34
2024-06-04 16:35:00,SystemResetWarning,0824.6,5.00,000.00,030.2,029.7,000.0,038.3,032.0,017.0,0000.0,0001.04,0010.31,0000.34
2024-06-04 16:36:00,SystemResetWarning,0824.5,4.99,000.00,030.1,028.5,000.0,038.4,031.3,016.8,0000.0,0001.05,0009.84,0000.33
2024-06-04 16:37:00,SystemResetWarning,0824.3,5.01,000.00,029.8,026.8,000.0,038.4,030.6,016.9,0000.0,0001.11,0009.88,0000.33
2024-06-04 16:38:00,SystemResetWarning,0824.4,5.00,000.00,029.6,027.1,000.0,038.4,030.6,016.9,0000.0,0001.08,0008.43,0000.33
2024-06-04 16:39:00,SystemResetWarning,0824.5,5.01,000.00,029.6,027.5,000.0,038.3,030.8,017.3,0000.0,0001.07,0007.86,0000.34
2024-06-04 16:40:00,SystemResetWarning,0824.6,5.00,000.00,029.6,027.8,000.0,038.2,031.0,016.9,0000.0,0001.05,0007.67,0000.35
2024-06-04 16:41:00,SystemResetWarning,0824.6,5.00,000.00,029.6,028.1,000.0,038.2,031.2,017.3,0000.0,0001.04,0007.70,0000.35
2024-06-04 16:42:00,SystemResetWarning,0824.7,5.00,000.00,029.7,028.3,000.0,038.1,031.3,017.4,0000.0,0001.05,0007.74,0000.36
2024-06-04 16:43:00,SystemResetWarning,0824.7,5.00,000.00,029.7,028.6,000.0,038.1,031.4,017.7,0000.0,0001.06,0007.74,0000.36
2024-06-04 16:44:00,SystemResetWarning,0824.7,4.99,000.00,029.7,028.7,000.0,038.1,031.4,016.8,0000.0,0001.07,0008.34,0000.36
2024-06-04 16:45:00,SystemResetWarning,0824.7,5.00,000.00,029.8,028.9,000.0,038.1,031.5,016.8,0000.0,0001.04,0007.88,0000.37
2024-06-04 16:46:00,SystemResetWarning,0824.7,5.00,000.00,029.8,029.0,000.0,038.1,031.5,016.5,0000.0,0000.98,0006.74,0000.36
2024-06-04 16:47:00,SystemResetWarning,0824.6,5.01,000.00,029.9,029.1,000.0,038.1,031.6,017.2,0000.0,0000.96,0005.86,0000.37
2024-06-04 16:48:00,SystemResetWarning,0824.6,5.00,000.00,029.9,029.2,000.0,038.1,031.7,017.0,0000.0,0000.89,0005.21,0000.38
2024-06-04 16:49:00,SystemResetWarning,0824.5,5.00,000.00,029.9,029.3,000.0,038.2,031.7,016.6,0000.0,0000.87,0004.69,0000.38
2024-06-04 16:50:00,SystemResetWarning,0824.6,5.01,000.00,030.0,029.4,000.0,038.2,031.7,016.9,0000.0,0000.82,0004.01,0000.38
2024-06-04 16:51:00,SystemResetWarning,0824.5,5.00,000.00,030.0,029.4,000.0,038.2,031.8,016.6,0000.0,0000.76,0003.60,0000.37
2024-06-04 16:52:00,SystemResetWarning,0824.6,4.99,000.00,030.1,029.5,000.0,038.2,031.8,016.6,0000.0,0000.75,0003.49,0000.38
2024-06-04 16:53:00,SystemResetWarning,0824.6,5.00,000.00,030.1,029.6,000.0,038.2,031.9,016.6,0000.0,0000.76,0003.48,0000.38
2024-06-04 16:54:00,SystemResetWarning,0824.5,4.99,000.00,030.1,028.7,000.0,038.3,031.4,016.3,0000.0,0000.77,0004.34,0000.38
2024-06-04 16:55:00,SystemResetWarning,0824.5,5.00,000.00,029.6,026.3,000.0,038.3,030.2,016.7,0000.0,0000.80,0003.71,0000.38
2024-06-04 16:56:00,SystemResetWarning,0824.4,5.01,000.00,029.3,025.7,000.0,038.3,029.9,017.6,0000.0,0000.84,0002.81,0000.38
2024-06-04 16:57:00,SystemResetWarning,0824.6,5.02,000.00,029.2,026.2,000.0,038.2,030.1,017.6,0000.0,0000.89,0003.68,0000.39
2024-06-04 16:58:00,SystemResetWarning,0824.6,4.99,000.00,029.1,026.7,000.0,038.0,030.3,017.6,0000.0,0000.94,0003.97,0000.39
2024-06-04 16:59:00,SystemResetWarning,0824.6,5.00,000.00,029.2,027.1,000.0,037.9,030.5,017.6,0000.0,0000.95,0004.01,0000.39
